| time (UTC) | temp F | wind direction | speed knots | gust knots | rain 1hr in | rain 24hr in | rain mn in | humidity % | barometer mb |
| 20260502163020 | 74 | 156 | 3.5 | 6.1 | 0.00 | 0.00 | 0.00 | 12 | 1017.5 |
| 20260502162019 | 74 | 153 | 3.5 | 7.8 | 0.00 | 0.00 | 0.00 | 12 | 1017.5 |
| 20260502161021 | 74 | 162 | 3.5 | 7.0 | 0.00 | 0.00 | 0.00 | 12 | 1017.5 |
| 20260502152018 | 74 | 182 | 3.5 | 6.1 | 0.00 | 0.00 | 0.00 | 11 | 1017.3 |
| 20260502151018 | 73 | 178 | 1.7 | 5.2 | 0.00 | 0.00 | 0.00 | 11 | 1017.3 |
| 20260502123027 | 64 | 315 | 1.7 | 3.5 | 0.00 | 0.00 | 0.00 | 14 | 1016.2 |
| 20260502122027 | 64 | 317 | 1.7 | 2.6 | 0.00 | 0.00 | 0.00 | 14 | 1016.2 |
| 20260502121027 | 64 | 300 | 1.7 | 2.6 | 0.00 | 0.00 | 0.00 | 13 | 1016.2 |
| 20260502115028 | 64 | 306 | 1.7 | 3.5 | 0.00 | 0.00 | 0.00 | 13 | 1016.1 |
| 20260502114028 | 64 | 292 | 1.7 | 2.6 | 0.00 | 0.00 | 0.00 | 13 | 1016.1 |
| 20260502113030 | 65 | 301 | 0.9 | 3.5 | 0.00 | 0.00 | 0.00 | 12 | 1016.1 |
| 20260502112028 | 65 | 297 | 1.7 | 2.6 | 0.00 | 0.00 | 0.00 | 12 | 1016.1 |
| 20260502111029 | 65 | 306 | 0.9 | 2.6 | 0.00 | 0.00 | 0.00 | 12 | 1016.1 |
| 20260502110029 | 65 | 301 | 1.7 | 3.5 | 0.00 | 0.00 | 0.00 | 12 | 1016.1 |
| 20260502105029 | 65 | 303 | 0.9 | 2.6 | 0.00 | 0.00 | 0.00 | 12 | 1016.1 |
| 20260502104049 | 65 | 310 | 1.7 | 3.5 | 0.00 | 0.00 | 0.00 | 12 | 1016.0 |
| 20260502103030 | 65 | 302 | 1.7 | 3.5 | 0.00 | 0.00 | 0.00 | 11 | 1016.0 |
| 20260502102052 | 66 | 307 | 1.7 | 3.5 | 0.00 | 0.00 | 0.00 | 11 | 1016.1 |
| 20260502101029 | 65 | 298 | 1.7 | 3.5 | 0.00 | 0.00 | 0.00 | 11 | 1016.2 |
| 20260502091031 | 66 | 295 | 1.7 | 3.5 | 0.00 | 0.00 | 0.00 | 11 | 1016.3 |
| 20260502071016 | 67 | 304 | 1.7 | 3.5 | 0.00 | 0.00 | 0.00 | 11 | 1016.3 |
| 20260502070018 | 67 | 288 | 1.7 | 2.6 | 0.00 | 0.00 | 0.00 | 10 | 1016.2 |
| 20260502065019 | 68 | 261 | 0.9 | 1.7 | 0.00 | 0.00 | 0.00 | 10 | 1016.2 |
| 20260502064018 | 69 | 218 | 1.7 | 3.5 | 0.00 | 0.00 | 0.00 | 9 | 1016.1 |
| 20260502063019 | 69 | 242 | 2.6 | 3.5 | 0.00 | 0.00 | 0.00 | 9 | 1016.1 |
| 20260502062039 | 69 | 218 | 1.7 | 2.6 | 0.00 | 0.00 | 0.00 | 9 | 1016.1 |
| 20260502061017 | 70 | 218 | 2.6 | 3.5 | 0.00 | 0.00 | 0.00 | 10 | 1016.0 |
| 20260502060018 | 70 | 202 | 3.5 | 4.3 | 0.00 | 0.00 | 0.00 | 9 | 1015.9 |
| 20260502055018 | 71 | 243 | 2.6 | 4.3 | 0.00 | 0.00 | 0.00 | 9 | 1015.8 |
| 20260502054017 | 71 | 203 | 2.6 | 4.3 | 0.00 | 0.00 | 0.00 | 9 | 1015.7 |
| 20260502053018 | 71 | 203 | 1.7 | 3.5 | 0.00 | 0.00 | 0.00 | 10 | 1015.7 |
| 20260502052019 | 70 | 312 | 2.6 | 5.2 | 0.00 | 0.00 | 0.00 | 10 | 1015.5 |
| 20260502051018 | 71 | 303 | 2.6 | 5.2 | 0.00 | 0.00 | 0.00 | 10 | 1015.4 |
| 20260502050019 | 71 | 322 | 3.5 | 7.8 | 0.00 | 0.00 | 0.00 | 10 | 1015.3 |
| 20260502045020 | 71 | 309 | 2.6 | 6.1 | 0.00 | 0.00 | 0.00 | 10 | 1015.2 |
| 20260502044018 | 71 | 312 | 3.5 | 7.0 | 0.00 | 0.00 | 0.00 | 10 | 1015.1 |
| 20260502043100 | 71 | 306 | 3.5 | 7.8 | 0.00 | 0.00 | 0.00 | 10 | 1015.0 |
| 20260502042017 | 72 | 302 | 3.5 | 11.3 | 0.00 | 0.00 | 0.00 | 9 | 1014.8 |
| 20260502041039 | 72 | 301 | 2.6 | 7.8 | 0.00 | 0.00 | 0.00 | 9 | 1014.7 |
| 20260502040019 | 72 | 298 | 1.7 | 5.2 | 0.00 | 0.00 | 0.00 | 9 | 1014.6 |
| 20260502035020 | 72 | 301 | 1.7 | 5.2 | 0.00 | 0.00 | 0.00 | 9 | 1014.3 |
| 20260502034021 | 72 | 313 | 5.2 | 7.8 | 0.00 | 0.00 | 0.00 | 9 | 1014.3 |
| 20260502033020 | 73 | 315 | 4.3 | 8.7 | 0.00 | 0.00 | 0.00 | 9 | 1014.1 |
| 20260502032020 | 73 | 312 | 4.3 | 10.4 | 0.00 | 0.00 | 0.00 | 9 | 1013.9 |
| 20260502031016 | 73 | 312 | 3.5 | 7.8 | 0.00 | 0.00 | 0.00 | 10 | 1013.7 |
| 20260502030021 | 73 | 310 | 3.5 | 9.6 | 0.00 | 0.00 | 0.00 | 10 | 1013.6 |
| 20260502025021 | 75 | 315 | 3.5 | 7.8 | 0.00 | 0.00 | 0.00 | 9 | 1013.4 |
| 20260502024021 | 75 | 321 | 3.5 | 7.0 | 0.00 | 0.00 | 0.00 | 9 | 1013.3 |
| 20260502023058 | 76 | 330 | 6.1 | 8.7 | 0.00 | 0.00 | 0.00 | 8 | 1013.2 |
| 20260502022017 | 76 | 335 | 6.1 | 9.6 | 0.00 | 0.00 | 0.00 | 8 | 1013.1 |
| 20260502021041 | 77 | 310 | 3.5 | 6.1 | 0.00 | 0.00 | 0.00 | 8 | 1013.0 |
| 20260502020022 | 77 | 335 | 7.8 | 12.2 | 0.00 | 0.00 | 0.00 | 8 | 1013.0 |
| 20260502015017 | 78 | 320 | 7.8 | 13.0 | 0.00 | 0.00 | 0.00 | 8 | 1012.9 |
| 20260502014018 | 78 | 317 | 5.2 | 9.6 | 0.00 | 0.00 | 0.00 | 8 | 1012.7 |
| 20260502013018 | 78 | 326 | 6.1 | 11.3 | 0.00 | 0.00 | 0.00 | 8 | 1012.7 |
| 20260502012018 | 79 | 330 | 7.8 | 13.0 | 0.00 | 0.00 | 0.00 | 9 | 1012.6 |
| 20260502011040 | 79 | 304 | 5.2 | 10.4 | 0.00 | 0.00 | 0.00 | 9 | 1012.7 |
| 20260502010018 | 79 | 330 | 6.1 | 13.9 | 0.00 | 0.00 | 0.00 | 9 | 1012.6 |
| 20260502005019 | 79 | 319 | 5.2 | 12.2 | 0.00 | 0.00 | 0.00 | 9 | 1012.6 |
| 20260502004020 | 79 | 343 | 8.7 | 15.6 | 0.00 | 0.00 | 0.00 | 9 | 1012.6 |
| 20260502003040 | 79 | 348 | 6.1 | 11.3 | 0.00 | 0.00 | 0.00 | 9 | 1012.6 |
| 20260502002019 | 79 | 351 | 7.8 | 17.4 | 0.00 | 0.00 | 0.00 | 9 | 1012.6 |
| 20260502001019 | 79 | 334 | 5.2 | 8.7 | 0.00 | 0.00 | 0.00 | 9 | 1012.7 |
| 20260502000021 | 79 | 344 | 7.0 | 15.6 | 0.00 | 0.00 | 0.00 | 9 | 1012.7 |
| 20260501235100 | 79 | 323 | 7.8 | 21.7 | 0.00 | 0.00 | 0.00 | 10 | 1012.7 |
| 20260501234017 | 79 | 347 | 8.7 | 20.0 | 0.00 | 0.00 | 0.00 | 10 | 1012.7 |
| 20260501233016 | 79 | 356 | 9.6 | 22.6 | 0.00 | 0.00 | 0.00 | 10 | 1012.7 |
| 20260501232020 | 79 | 356 | 7.8 | 13.9 | 0.00 | 0.00 | 0.00 | 10 | 1012.8 |
| 20260501231020 | 79 | 333 | 6.1 | 14.8 | 0.00 | 0.00 | 0.00 | 10 | 1012.8 |
| 20260501230017 | 79 | 324 | 6.1 | 14.8 | 0.00 | 0.00 | 0.00 | 10 | 1012.9 |
| 20260501225017 | 79 | 350 | 7.0 | 12.2 | 0.00 | 0.00 | 0.00 | 9 | 1013.0 |
| 20260501224038 | 79 | 7 | 4.3 | 10.4 | 0.00 | 0.00 | 0.00 | 9 | 1013.1 |
| 20260501223018 | 79 | 354 | 7.0 | 14.8 | 0.00 | 0.00 | 0.00 | 10 | 1013.2 |
| 20260501222038 | 79 | 359 | 7.0 | 14.8 | 0.00 | 0.00 | 0.00 | 9 | 1013.2 |
| 20260501221019 | 79 | 12 | 7.8 | 21.7 | 0.00 | 0.00 | 0.00 | 11 | 1013.4 |
| 20260501220020 | 79 | 339 | 6.1 | 14.8 | 0.00 | 0.00 | 0.00 | 11 | 1013.5 |
| 20260501215040 | 78 | 353 | 6.1 | 12.2 | 0.00 | 0.00 | 0.00 | 11 | 1013.6 |
| 20260501214019 | 79 | 337 | 6.1 | 19.1 | 0.00 | 0.00 | 0.00 | 11 | 1013.8 |
| 20260501213016 | 79 | 345 | 7.0 | 19.1 | 0.00 | 0.00 | 0.00 | 12 | 1013.8 |
| 20260501212021 | 78 | 347 | 6.1 | 15.6 | 0.00 | 0.00 | 0.00 | 12 | 1014.0 |
| 20260501211019 | 78 | 345 | 6.1 | 12.2 | 0.00 | 0.00 | 0.00 | 13 | 1014.2 |
| 20260501210021 | 78 | 335 | 4.3 | 8.7 | 0.00 | 0.00 | 0.00 | 13 | 1014.2 |
| 20260501205019 | 77 | 11 | 4.3 | 7.8 | 0.00 | 0.00 | 0.00 | 13 | 1014.3 |
| 20260501204017 | 77 | 322 | 2.6 | 7.0 | 0.00 | 0.00 | 0.00 | 14 | 1014.3 |
| 20260501203017 | 77 | 322 | 6.1 | 14.8 | 0.00 | 0.00 | 0.00 | 13 | 1014.3 |
| 20260501202021 | 77 | 340 | 3.5 | 10.4 | 0.00 | 0.00 | 0.00 | 14 | 1014.4 |
| 20260501201018 | 77 | 319 | 3.5 | 9.6 | 0.00 | 0.00 | 0.00 | 14 | 1014.5 |
| 20260501200017 | 76 | 321 | 3.5 | 7.8 | 0.00 | 0.00 | 0.00 | 15 | 1014.7 |
| 20260501195018 | 74 | 82 | 0.9 | 7.8 | 0.00 | 0.00 | 0.00 | 15 | 1014.9 |
| 20260501194019 | 74 | 358 | 5.2 | 10.4 | 0.00 | 0.00 | 0.00 | 15 | 1015.0 |
| 20260501193018 | 74 | 360 | 1.7 | 7.8 | 0.00 | 0.00 | 0.00 | 15 | 1015.1 |
| 20260501192018 | 75 | 1 | 5.2 | 14.8 | 0.00 | 0.00 | 0.00 | 15 | 1015.3 |
| 20260501191041 | 75 | 32 | 2.6 | 8.7 | 0.00 | 0.00 | 0.00 | 15 | 1015.4 |
| 20260501190018 | 75 | 332 | 5.2 | 8.7 | 0.00 | 0.00 | 0.00 | 15 | 1015.4 |
| 20260501185019 | 76 | 17 | 5.2 | 13.0 | 0.00 | 0.00 | 0.00 | 15 | 1015.5 |
| 20260501184019 | 75 | 12 | 2.6 | 10.4 | 0.00 | 0.00 | 0.00 | 15 | 1015.6 |
| 20260501183038 | 74 | 5 | 6.1 | 10.4 | 0.00 | 0.00 | 0.00 | 15 | 1015.7 |
| 20260501182019 | 75 | 26 | 4.3 | 12.2 | 0.00 | 0.00 | 0.00 | 15 | 1015.7 |
| 20260501181019 | 75 | 6 | 1.7 | 7.0 | 0.00 | 0.00 | 0.00 | 15 | 1015.8 |
| 20260501180019 | 74 | 354 | 4.3 | 8.7 | 0.00 | 0.00 | 0.00 | 16 | 1015.8 |
| 20260501175017 | 76 | 23 | 1.7 | 12.2 | 0.00 | 0.00 | 0.00 | 15 | 1015.8 |
| 20260501174017 | 74 | 118 | 3.5 | 7.8 | 0.00 | 0.00 | 0.00 | 15 | 1015.9 |
| 20260501173017 | 75 | 75 | 3.5 | 8.7 | 0.00 | 0.00 | 0.00 | 15 | 1015.9 |
| 20260501172020 | 73 | 142 | 2.6 | 6.1 | 0.00 | 0.00 | 0.00 | 15 | 1015.9 |
| 20260501171019 | 73 | 8 | 4.3 | 11.3 | 0.00 | 0.00 | 0.00 | 17 | 1015.9 |
| 20260501170018 | 72 | 3 | 4.3 | 10.4 | 0.00 | 0.00 | 0.00 | 17 | 1016.0 |
| 20260501165057 | 72 | 311 | 4.3 | 9.6 | 0.00 | 0.00 | 0.00 | 17 | 1016.0 |
| 20260501164018 | 72 | 337 | 9.6 | 14.8 | 0.00 | 0.00 | 0.00 | 17 | 1015.9 |